Terminal Aerodrome Forecast
Issued by NWS

Home | Current Version | Previous Version | Text Only | Print | Product List | Glossary On
Versions: 1 2 3 4 5 6 7 8 9 10 11 12 13 14 15 16
000
FTUS42 KTBW 241100
TAFPGD
TAF
KPGD 241124Z 2412/2512 04008KT P6SM SCT040
     FM241500 05013G20KT P6SM FEW040 SCT250
     FM250000 02007KT P6SM FEW250=

USA.gov is the U.S. government's official web portal to all federal, state and local government web resources and services.